Location: *
(51.1248°S, 108.4023°W)
Time: 22:00:44
(UTC+00:00)

Cosmos 1656 Rocket - Pass Details

Date: 15 June 2021
Orbit: 794 x 847 km, 71.1° (Epoch: 04 August)

Event Time Altitude Azimuth Distance (km) Brightness Sun altitude
Exits shadow 12:48:34 41° 295° (WNW) 1,180 4.0 -21.9°
Maximum altitude 12:50:20 61° 236° (SW) 933 3.6 -21.6°
Drops below altitude 10° 12:55:49 10° 155° (SSE) 2,416 6.2 -20.8°
Sets 12:58:17 0° 151° (SSE) 3,347 7.0 -20.4°
